TimeCST,TemperatureF,Dew PointF,Humidity,Sea Level PressureIn,VisibilityMPH,Wind Direction,Wind SpeedMPH,Gust SpeedMPH,PrecipitationIn,Events,Conditions,WindDirDegrees,DateUTC
6:00 AM,73,68,79,29.87,12,Calm,Calm,,,,Scattered Clouds,,2013-12-06 12:00:00
6:00 AM,73.4,68.0,83,29.84,-9999.0,Calm,Calm,-,N/A,,Clear,0,2013-12-06 12:00:00
7:00 AM,78.8,69.8,74,29.85,-9999.0,ESE,8.1,-,N/A,,Clear,110,2013-12-06 13:00:00
8:00 AM,84.2,69.8,62,29.86,-9999.0,East,10.4,-,N/A,,Clear,90,2013-12-06 14:00:00
9:00 AM,87,69,46,29.90,12,East,11.5,,,,Scattered Clouds,90,2013-12-06 15:00:00
9:00 AM,87.8,69.8,55,29.87,-9999.0,East,11.5,23.0,N/A,,Clear,90,2013-12-06 15:00:00
10:00 AM,87.8,68.0,52,29.87,6.2,East,13.8,-,N/A,,Partly Cloudy,80,2013-12-06 16:00:00
11:00 AM,89.6,68.0,49,29.85,6.2,ENE,13.8,-,N/A,,Partly Cloudy,70,2013-12-06 17:00:00
12:00 PM,91,68,37,29.85,12,East,11.5,,,,Scattered Clouds,90,2013-12-06 18:00:00
12:00 PM,91.4,68.0,46,29.82,6.2,East,11.5,-,N/A,,Partly Cloudy,90,2013-12-06 18:00:00
1:00 PM,89.6,69.8,52,29.80,6.2,East,11.5,-,N/A,,Scattered Clouds,90,2013-12-06 19:00:00
2:00 PM,91.4,69.8,49,29.78,6.2,East,11.5,-,N/A,,Scattered Clouds,80,2013-12-06 20:00:00
3:00 PM,91,69,40,29.81,12,ENE,15.0,,,,Partly Cloudy,60,2013-12-06 21:00:00
3:00 PM,91.4,69.8,49,29.77,6.2,ENE,15.0,-,N/A,,Scattered Clouds,60,2013-12-06 21:00:00
4:00 PM,87.8,69.8,55,-9999,6.2,East,11.5,-,N/A,,Scattered Clouds,80,2013-12-06 22:00:00
5:00 PM,84.2,69.8,62,29.80,6.2,East,5.8,-,N/A,,Mostly Cloudy,100,2013-12-06 23:00:00
6:00 PM,82,70,59,29.85,12,East,4.6,,,,Overcast,100,2013-12-07 00:00:00
6:00 PM,82.4,69.8,66,29.81,6.2,East,4.6,-,N/A,,Mostly Cloudy,100,2013-12-07 00:00:00
7:00 PM,80.6,69.8,70,29.84,-9999.0,East,4.6,-,N/A,,Clear,100,2013-12-07 01:00:00
8:00 PM,80.6,69.8,70,29.87,-9999.0,East,5.8,-,N/A,,Clear,90,2013-12-07 02:00:00